Погода в Табачном

Россия / Республика Крым     44°54′10″N   33°40′34″E
темп.,
°C
ветер,
м/с
пор.,
м/с
влажн.,
%
обл.,
%
осадки,
мм/ч
давл.,
гПа
погр.,
м
20 апреля, вт
вт2000:00+11ююв1288100 0.2 101098
03:00+9з2398100 3.9 1008203
06:00+10ююз0197100 3.0 1005174
09:00+11ююз91384100 3.8 1004923
12:00+10юз10138471 0.1 10051005
15:00+9зюз121689100 0.5 10061131
18:00+9з71192100 0.5 1009802
21:00+8юз5895100 0.5 1012282
21 апреля, ср
ср2100:00+8ююз4796100 0.0 1014215
03:00+7ю5895100 0.1 1015183
06:00+7ю4893100 0.1 1016158
09:00+12ююз6775100 0.2 1017597
12:00+13зюз676987 0.3 1018923
15:00+13юз78685 0.5 1018890
18:00+12юз68745 0.0 1019540
21:00+8ююз37880 0.0 1020142
22 апреля, чт
чт2200:00+8ю33860 0.0 102048
03:00+7ю33835 0.0 102036
06:00+7ю33825 0.0 102134
09:00+12юз34653 0.0 1022452
12:00+15зюз55572 0.0 1022801
15:00+14зюз56574 0.0 1022662
18:00+12юз45640 0.0 1022368
21:00+9ююз22810 0.0 102332
23 апреля, пт
пт2300:00+8ю22770 0.0 102327
03:00+8ю22760 0.0 102221
06:00+7юв2272100 0.0 102214
09:00+14ююв124960 0.0 1021333
12:00+17зюз45455 0.0 10201292
15:00+17юз7743100 0.0 10191014
18:00+15юз5859100 0.0 1018365
21:00+11ююз347036 0.0 101960
24 апреля, сб
сб2400:00+9юз36795 0.0 1019120
03:00+8ю33765 0.0 101842
06:00+9юз369356 0.0 1019236
09:00+11сз347758 0.0 1020673
12:00+13з55623 0.0 1021961
15:00+14з5550100 0.0 10211055
18:00+11зсз456091 0.0 1021411
21:00+7с1175100 0.0 102215